• In Russia
  • List of Countries
  • For 7 days
  • Water Temperature
  • Satellite Maps
  • Weather Map
  • Weather Widgets
  • user-avatar
    Login

    Hourly Weather Balho

    Today, 19 January, Saturday

    Time Temperature Precipitation Wind Pressure Humidity
    00:00 +29°C° 0 mm 2 mps 738 mmHg 55%
    01:00 +29°C° 0 mm 2 mps 738 mmHg 58%
    02:00 +28°C° 0 mm 2 mps 738 mmHg 60%
    03:00 +28°C° 0 mm 2 mps 738 mmHg 64%
    04:00 +27°C° 0 mm 2 mps 738 mmHg 65%
    05:00 +27°C° 0 mm 1 mps 738 mmHg 67%
    06:00 +26°C° 0 mm 1 mps 739 mmHg 69%
    07:00 +27°C° 0 mm 1 mps 739 mmHg 66%
    08:00 +27°C° 0 mm 2 mps 739 mmHg 63%
    09:00 +28°C° 0 mm 2 mps 740 mmHg 59%
    10:00 +29°C° 0 mm 2 mps 740 mmHg 51%
    11:00 +31°C° 0 mm 1 mps 740 mmHg 43%
    12:00 +32°C° 0 mm 1 mps 739 mmHg 35%
    13:00 +33°C° 0 mm 1 mps 739 mmHg 31%
    14:00 +34°C° 0 mm 1 mps 738 mmHg 27%
    15:00 +35°C° 0 mm 1 mps 738 mmHg 24%
    16:00 +36°C° 0 mm 2 mps 737 mmHg 25%
    17:00 +36°C° 0 mm 2 mps 737 mmHg 26%
    18:00 +35°C° 0 mm 3 mps 737 mmHg 26%
    19:00 +34°C° 0 mm 4 mps 738 mmHg 34%
    20:00 +33°C° 0 mm 4 mps 738 mmHg 41%
    21:00 +30°C° 0 mm 4 mps 738 mmHg 49%
    22:00 +30°C° 0 mm 4 mps 739 mmHg 51%
    23:00 +29°C° 0 mm 3 mps 739 mmHg 52%

    Tomorrow, 20 January, Sunday

    Time Temperature Precipitation Wind Pressure Humidity
    00:00 +28°C° 0 mm 3 mps 739 mmHg 54%
    01:00 +28°C° 0 mm 3 mps 738 mmHg 55%
    02:00 +27°C° 0 mm 3 mps 738 mmHg 56%
    03:00 +27°C° 0 mm 2 mps 738 mmHg 56%
    04:00 +26°C° 0 mm 2 mps 738 mmHg 58%
    05:00 +26°C° 0 mm 2 mps 739 mmHg 60%
    06:00 +26°C° 0 mm 2 mps 739 mmHg 61%
    07:00 +26°C° 0 mm 2 mps 740 mmHg 58%
    08:00 +27°C° 0 mm 2 mps 740 mmHg 54%
    09:00 +28°C° 0 mm 2 mps 741 mmHg 50%
    10:00 +29°C° 0 mm 2 mps 741 mmHg 44%
    11:00 +31°C° 0 mm 2 mps 740 mmHg 38%
    12:00 +32°C° 0 mm 2 mps 740 mmHg 32%
    13:00 +34°C° 0 mm 2 mps 740 mmHg 30%
    14:00 +35°C° 0 mm 2 mps 739 mmHg 29%
    15:00 +35°C° 0 mm 2 mps 738 mmHg 27%
    16:00 +35°C° 0 mm 3 mps 738 mmHg 31%
    17:00 +34°C° 0 mm 4 mps 738 mmHg 34%
    18:00 +34°C° 0 mm 5 mps 738 mmHg 37%
    19:00 +32°C° 0 mm 5 mps 739 mmHg 43%
    20:00 +30°C° 0 mm 5 mps 739 mmHg 50%
    21:00 +29°C° 0 mm 5 mps 740 mmHg 57%
    22:00 +28°C° 0 mm 5 mps 740 mmHg 58%
    23:00 +28°C° 0 mm 4 mps 739 mmHg 60%

    Day after tomorrow, 21 January, Monday

    Time Temperature Precipitation Wind Pressure Humidity
    00:00 +27°C° 0 mm 4 mps 739 mmHg 62%
    01:00 +27°C° 0 mm 4 mps 739 mmHg 64%
    02:00 +26°C° 0 mm 3 mps 739 mmHg 66%
    03:00 +26°C° 0 mm 3 mps 738 mmHg 68%
    04:00 +25°C° 0 mm 3 mps 739 mmHg 70%
    05:00 +25°C° 0 mm 3 mps 739 mmHg 72%
    06:00 +24°C° 0 mm 2 mps 739 mmHg 74%
    07:00 +25°C° 0 mm 3 mps 740 mmHg 68%
    08:00 +26°C° 0 mm 3 mps 741 mmHg 63%
    09:00 +27°C° 0 mm 3 mps 741 mmHg 58%
    10:00 +29°C° 0 mm 3 mps 741 mmHg 50%
    11:00 +32°C° 0 mm 4 mps 741 mmHg 42%
    12:00 +33°C° 0 mm 4 mps 740 mmHg 34%
    13:00 +34°C° 0 mm 4 mps 739 mmHg 32%
    14:00 +35°C° 0 mm 4 mps 738 mmHg 30%
    15:00 +35°C° 0 mm 4 mps 737 mmHg 28%
    16:00 +35°C° 0 mm 5 mps 737 mmHg 32%
    17:00 +34°C° 0 mm 5 mps 737 mmHg 35%
    18:00 +33°C° 0 mm 6 mps 737 mmHg 38%
    19:00 +32°C° 0 mm 6 mps 738 mmHg 43%
    20:00 +30°C° 0 mm 5 mps 738 mmHg 48%
    21:00 +29°C° 0 mm 5 mps 739 mmHg 53%
    22:00 +28°C° 0 mm 5 mps 739 mmHg 57%
    23:00 +27°C° 0 mm 4 mps 738 mmHg 61%

    22 January, Tuesday

    Time Temperature Precipitation Wind Pressure Humidity
    00:00 +27°C° 0 mm 4 mps 738 mmHg 65%
    01:00 +26°C° 0 mm 4 mps 738 mmHg 67%
    02:00 +26°C° 0 mm 3 mps 737 mmHg 70%
    03:00 +26°C° 0 mm 3 mps 737 mmHg 72%
    04:00 +25°C° 0 mm 2 mps 737 mmHg 74%
    05:00 +25°C° 0 mm 2 mps 738 mmHg 76%
    06:00 +25°C° 0 mm 2 mps 738 mmHg 78%
    07:00 +26°C° 0 mm 2 mps 739 mmHg 73%
    08:00 +27°C° 0 mm 3 mps 740 mmHg 67%
    09:00 +28°C° 0 mm 3 mps 740 mmHg 62%
    10:00 +29°C° 0 mm 3 mps 740 mmHg 53%
    11:00 +32°C° 0 mm 4 mps 739 mmHg 44%
    12:00 +34°C° 0 mm 4 mps 739 mmHg 35%
    13:00 +35°C° 0 mm 4 mps 738 mmHg 33%
    14:00 +35°C° 0 mm 4 mps 737 mmHg 31%
    15:00 +36°C° 0 mm 4 mps 736 mmHg 29%
    16:00 +35°C° 0 mm 5 mps 736 mmHg 33%
    17:00 +34°C° 0 mm 5 mps 736 mmHg 38%
    18:00 +33°C° 0 mm 6 mps 736 mmHg 43%
    19:00 +32°C° 0 mm 6 mps 737 mmHg 48%
    20:00 +30°C° 0 mm 5 mps 737 mmHg 54%
    21:00 +29°C° 0 mm 5 mps 738 mmHg 59%
    22:00 +28°C° 0 mm 4 mps 737 mmHg 62%
    23:00 +27°C° 0 mm 4 mps 737 mmHg 64%

    23 January, Wednesday

    Time Temperature Precipitation Wind Pressure Humidity
    00:00 +27°C° 0 mm 4 mps 737 mmHg 67%
    01:00 +26°C° 0 mm 3 mps 736 mmHg 69%
    02:00 +26°C° 0 mm 3 mps 736 mmHg 71%
    03:00 +25°C° 0 mm 3 mps 736 mmHg 73%
    04:00 +25°C° 0 mm 3 mps 736 mmHg 74%
    05:00 +25°C° 0 mm 3 mps 737 mmHg 76%
    06:00 +24°C° 0 mm 2 mps 737 mmHg 78%
    07:00 +25°C° 0 mm 2 mps 738 mmHg 72%
    08:00 +26°C° 0 mm 3 mps 739 mmHg 67%
    09:00 +27°C° 0 mm 3 mps 739 mmHg 61%
    10:00 +29°C° 0 mm 3 mps 739 mmHg 53%
    11:00 +32°C° 0 mm 4 mps 739 mmHg 44%
    12:00 +34°C° 0 mm 4 mps 738 mmHg 36%
    13:00 +34°C° 0 mm 4 mps 737 mmHg 34%
    14:00 +35°C° 0 mm 4 mps 737 mmHg 32%
    15:00 +36°C° 0 mm 5 mps 736 mmHg 30%
    16:00 +35°C° 0 mm 5 mps 736 mmHg 33%
    17:00 +34°C° 0 mm 5 mps 736 mmHg 36%
    18:00 +33°C° 0 mm 6 mps 736 mmHg 39%
    19:00 +32°C° 0 mm 5 mps 737 mmHg 43%
    20:00 +30°C° 0 mm 5 mps 737 mmHg 47%
    21:00 +29°C° 0 mm 4 mps 738 mmHg 51%
    22:00 +28°C° 0 mm 4 mps 738 mmHg 53%
    23:00 +27°C° 0 mm 4 mps 738 mmHg 56%

    24 January, Thursday

    Time Temperature Precipitation Wind Pressure Humidity
    00:00 +27°C° 0 mm 3 mps 737 mmHg 58%
    01:00 +26°C° 0 mm 3 mps 737 mmHg 62%
    02:00 +25°C° 0 mm 3 mps 737 mmHg 66%
    03:00 +25°C° 0 mm 3 mps 737 mmHg 69%
    04:00 +25°C° 0 mm 3 mps 737 mmHg 72%
    05:00 +24°C° 0 mm 2 mps 737 mmHg 75%
    06:00 +24°C° 0 mm 2 mps 738 mmHg 78%
    07:00 +25°C° 0 mm 3 mps 738 mmHg 72%
    08:00 +26°C° 0 mm 3 mps 739 mmHg 66%
    09:00 +27°C° 0 mm 3 mps 740 mmHg 60%
    10:00 +29°C° 0 mm 3 mps 739 mmHg 51%
    11:00 +31°C° 0 mm 3 mps 739 mmHg 41%
    12:00 +34°C° 0 mm 4 mps 738 mmHg 32%
    13:00 +35°C° 0 mm 4 mps 738 mmHg 29%
    14:00 +36°C° 0 mm 4 mps 737 mmHg 27%
    15:00 +37°C° 0 mm 4 mps 736 mmHg 24%
    16:00 +36°C° 0 mm 4 mps 736 mmHg 27%
    17:00 +35°C° 0 mm 5 mps 736 mmHg 30%
    18:00 +34°C° 0 mm 6 mps 736 mmHg 34%
    19:00 +33°C° 0 mm 5 mps 737 mmHg 39%
    20:00 +30°C° 0 mm 5 mps 737 mmHg 45%
    21:00 +29°C° 0 mm 4 mps 738 mmHg 51%
    22:00 +28°C° 0 mm 4 mps 738 mmHg 53%
    23:00 +28°C° 0 mm 4 mps 738 mmHg 56%
    Show more